Overview Statistics Trail Chart Weather Telemetry Raw packets
 

This is the latest recevied weather packets stored in our database for station/object KC5DAQ-26. If no packets are shown the sender has not sent any weather packets the latest 10 day(s).

<< 355 356 357 358 359 360 361 >>
Time Temp. Humidity Pressure Rain* Wind** Luminosity Snow
1788198904 32.78° C 69% 1019.4 hPa 0 mm - 714 W/m² -
1788198842 33.33° C 68% 1019.5 hPa 0 mm - 617 W/m² -
1788198782 33.33° C 68% 1019.4 hPa 0 mm - 362 W/m² -
1788198722 33.33° C 68% 1019.5 hPa 0 mm - 287 W/m² -
1788198663 33.33° C 69% 1019.5 hPa 0 mm - 317 W/m² -
1788198603 33.33° C 70% 1019.5 hPa 0 mm - 427 W/m² -
1788198542 32.78° C 70% 1019.5 hPa 0 mm - 387 W/m² -
1788198483 32.78° C 69% 1019.5 hPa 0 mm - 362 W/m² -
1788198422 32.78° C 69% 1019.5 hPa 0 mm - 369 W/m² -
1788198363 32.78° C 69% 1019.5 hPa 0 mm - 369 W/m² -
1788198304 32.78° C 69% 1019.5 hPa 0 mm - 415 W/m² -
1788198242 32.78° C 69% 1019.5 hPa 0 mm - 492 W/m² -
1788198182 32.78° C 70% 1019.6 hPa 0 mm - 429 W/m² -
1788198125 32.78° C 69% 1019.6 hPa 0 mm - 390 W/m² -
1788198063 32.78° C 69% 1019.6 hPa 0 mm - 389 W/m² -
1788198003 32.78° C 69% 1019.6 hPa 0 mm - 396 W/m² -
1788197942 32.78° C 70% 1019.6 hPa 0 mm - 406 W/m² -
1788197884 32.22° C 72% 1019.6 hPa 0 mm - 612 W/m² -
1788197823 32.22° C 71% 1019.6 hPa 0 mm - 573 W/m² -
1788197762 32.22° C 71% 1019.6 hPa 0 mm - 681 W/m² -
1788197704 31.67° C 71% 1019.6 hPa 0 mm - 369 W/m² -
1788197642 31.67° C 72% 1019.7 hPa 0 mm - 327 W/m² -
1788197584 31.67° C 75% 1019.7 hPa 0 mm - 292 W/m² -
1788197522 31.67° C 72% 1019.6 hPa 0 mm - 269 W/m² -
1788197463 31.67° C 73% 1019.6 hPa 0 mm - 239 W/m² -

* Rain latest hour (hover to see other rain measurements)
** Current wind speed in m/s (hover to see current wind gust speed)